2025 Mattoon 2A Sectional

November 01, 2025


Results by Austin Birch for ChampionChip247

Overall Finish List - Girls

Varsity - Girls

Varsity

Qualifying Teams: 7 Individuals: 10

O'All Place Score Bib No Name Team Time Pace Grade Qualifier
1 1 472 Ali Londrigan Chatham (Glenwood) 17:26.4 5:49/M 11 TM
2 2 479 Sophie Rentmeister Chatham (Glenwood) 17:49.1 5:56/M 11 TM
3 3 473 Ashlyn Chopra Chatham (Glenwood) 17:54.2 5:58/M 12 TM
4 1442 Elayna Harker Taylorville 17:55.7 5:59/M 10 IND
5 4 1441 Paityn Brady Springfield (Sacred Heart-Griffin) 17:58.9 6:00/M 10 TM
6 5 471 Ali Broaddus Chatham (Glenwood) 18:21.2 6:07/M 10 TM
7 6 1392 Ashley Zeibert Rochester 18:28.3 6:09/M 12 TM
8 7 1222 Millie Schumacher Jacksonville 18:30.4 6:10/M 10 IND
9 8 1245 Emily Anand Mahomet (M.-Seymour) 18:34.9 6:12/M 12 TM
10 425 Sophie Krupa Carbondale 18:38.0 6:13/M 12 IND
11 9 1344 Avery Sommer Mt. Zion 18:40.6 6:14/M 12 TM
12 10 1398 Natalie Nichols Rochester 18:42.4 6:14/M 12 TM
13 1269 Kara Odum Marion 18:50.0 6:17/M 12 IND
14 11 451 Farah Scott Champaign (Centennial) 18:53.1 6:18/M 11 IND
15 12 1457 Emberlie Goins Troy (Triad) 18:53.7 6:18/M 9 IND
16 13 1253 Paige Jansen Mahomet (M.-Seymour) 18:53.9 6:18/M 9 TM
17 1232 Taylor Short Lincoln 18:57.3 6:19/M 9 IND
18 14 1470 Marley Yau Urbana 19:04.6 6:22/M 11 IND
19 15 1244 Cecily Smith Mahomet (M.-Seymour) 19:06.3 6:22/M 10 TM
20 16 1393 Calista Gardner Rochester 19:06.7 6:22/M 10 TM
21 17 433 Laney Sambursky Carterville 19:15.6 6:25/M 10 TM
22 18 1372 Isabella Stevens Olney (Richland County) 19:20.8 6:27/M 10 IND
23 19 1228 Zorina Bohannon Jacksonville 19:22.9 6:28/M 9 IND
24 20 499 Avery Lay Freeburg 19:25.6 6:29/M 9
25 21 474 Brenna Sloman Chatham (Glenwood) 19:26.9 6:29/M 11 TM
26 22 899 Morgan Greenwald Highland 19:29.2 6:30/M 9 TM
27 424 Nora Epplin Carbondale 19:30.8 6:30/M 9
28 23 1488 Calla Espenschied Waterloo 19:39.8 6:33/M 12
29 24 1241 Anniston Huff Mahomet (M.-Seymour) 19:42.9 6:34/M 11 TM
30 25 428 Claire Samples Carterville 19:46.2 6:35/M 9 TM
31 1443 Sarah Wagner Taylorville 19:48.0 6:36/M 9
32 26 1373 Josie Ginder Olney (Richland County) 19:50.8 6:37/M 12
33 27 1440 Oceana Huang Springfield (Sacred Heart-Griffin) 19:51.0 6:37/M 10 TM
34 28 1242 Ava Cvengros Mahomet (M.-Seymour) 19:53.1 6:38/M 9 TM
35 29 1466 Genisis Walker Urbana 19:56.6 6:39/M 11
36 30 895 Brooklyn Giffhorn Highland 19:58.3 6:39/M 10 TM
37 31 1491 Emily Vogt Waterloo 19:58.3 6:39/M 11
38 32 1432 Hadley Grider Springfield (Sacred Heart-Griffin) 19:58.5 6:40/M 11 TM
39 1308 Kaelyn Ryan Mattoon 20:00.7 6:40/M 12
40 493 Daniya Hill East St. Louis 20:03.3 6:41/M 11
41 33 896 Josie Kircher Highland 20:05.7 6:42/M 10 TM
42 34 1226 Payton Murray Jacksonville 20:10.5 6:44/M 10
43 448 Aurora Amason Centralia 20:11.7 6:44/M 12
44 35 1248 Finley Smith Mahomet (M.-Seymour) 20:12.4 6:44/M 10 TM
45 36 435 Lyla Seaman Carterville 20:12.7 6:44/M 11 TM
46 37 897 Katie Fenton Highland 20:13.1 6:44/M 9 TM
47 38 1346 Elena Coon Mt. Zion 20:13.2 6:44/M 10 TM
48 39 1401 Talia Daniels Rochester 20:14.5 6:45/M 10 TM
49 40 1389 Amara Kaeding Rochester 20:14.6 6:45/M 11 TM
50 41 1353 Sandra Munoz Mt. Zion 20:15.3 6:45/M 10 TM
51 42 1354 Zoe Heitz Mt. Zion 20:15.5 6:45/M 9 TM
52 1230 Amelia Jumper Jerseyville (Jersey) 20:17.0 6:46/M 9
53 43 1252 Kennedy Ashby Mahomet (M.-Seymour) 20:17.5 6:46/M 10 TM
54 44 1394 Charlotte Long Rochester 20:18.6 6:46/M 10 TM
55 45 1412 Sophia Llosa Springfield 20:18.8 6:46/M 9
56 46 1284 Chloe Millett Mascoutah 20:19.4 6:46/M 11
57 47 1282 Autumn Jackson Mascoutah 20:20.5 6:47/M 9
58 48 1489 Charley Funk Waterloo 20:25.7 6:49/M 10
59 49 1350 Lola Maldonado Mt. Zion 20:27.0 6:49/M 11 TM
60 50 877 Madison Marshall Freeburg 20:27.0 6:49/M 9
61 1306 Alaina Hedges Mattoon 20:28.1 6:49/M 12
62 51 1348 Ellie Jones Mt. Zion 20:32.3 6:51/M 9 TM
63 52 1436 Kate Lambert Springfield (Sacred Heart-Griffin) 20:32.4 6:51/M 11 TM
64 53 1289 River Pittman Mascoutah 20:34.2 6:51/M 9
65 54 1451 Abigail James Troy (Triad) 20:35.6 6:52/M 12
66 423 Alexia Morris Breese (Central) 20:37.7 6:53/M 12
67 55 1407 Anamarie Kren Springfield 20:38.2 6:53/M 11
68 56 1433 Hannah Ruscin Springfield (Sacred Heart-Griffin) 20:39.6 6:53/M 9 TM
69 57 449 Brenna Hooper Champaign (Centennial) 20:42.0 6:54/M 11
70 412 Sabrina Eccles Alton (Marquette) 20:46.4 6:55/M 10
71 58 1202 Vivian Marron Highland 20:48.2 6:56/M 12 TM
72 59 1455 Bradynn Carey Troy (Triad) 20:51.1 6:57/M 12
73 60 1347 Ella Morgan Mt. Zion 20:58.5 7:00/M 9 TM
74 61 1286 Layla Latour Mascoutah 20:59.0 7:00/M 9
75 62 1290 Ryleigh Piller Mascoutah 20:59.7 7:00/M 11
76 63 1278 Abby Detering Mascoutah 21:01.0 7:00/M 10
77 1311 Symphany Allen Mattoon 21:01.6 7:01/M 12
78 64 1438 Macey Koehn Springfield (Sacred Heart-Griffin) 21:02.1 7:01/M 11 TM
79 65 1452 Alivia Phillips Troy (Triad) 21:03.6 7:01/M 12
80 495 Baylee Summers Effingham 21:05.8 7:02/M 12
81 66 1326 Lily Rains Mt. Vernon 21:06.2 7:02/M 10
82 67 478 Milly Celletti Chatham (Glenwood) 21:09.4 7:03/M 9 TM
83 68 1325 Kennedy Bax Mt. Vernon 21:12.7 7:04/M 11
84 69 1411 Nora Andring Springfield 21:15.2 7:05/M 9
85 70 871 Emma Savage Freeburg 21:15.9 7:05/M 11
86 71 872 Grace Trentman Freeburg 21:17.1 7:06/M 12
87 72 1322 Abbie Russell Mt. Vernon 21:21.6 7:07/M 11
88 73 452 Kinley Alexander Champaign (Centennial) 21:24.2 7:08/M 9
89 1405 Kendall Zimmerman Salem 21:26.4 7:09/M 10
90 74 434 Liesel Balmforth Carterville 21:27.1 7:09/M 11 TM
91 75 1410 Melody Guardia Springfield 21:27.2 7:09/M 9
92 458 Samantha Fehrenbacher Charleston 21:29.2 7:10/M 12
93 76 1460 Morgan Mason Troy (Triad) 21:31.5 7:11/M 12
94 77 1374 Karlee Piercefield Olney (Richland County) 21:31.6 7:11/M 12
95 78 1279 Abcde Climaco Mascoutah 21:33.6 7:11/M 10
96 79 454 Molly Pate Champaign (Centennial) 21:37.1 7:12/M 12
97 80 1377 Mallory Kocher Olney (Richland County) 21:38.2 7:13/M 10
98 81 880 Sam Christ Freeburg 21:38.3 7:13/M 9
99 82 453 Lauren Kleber Champaign (Centennial) 21:38.9 7:13/M 11
100 83 1496 Norah Kettler Waterloo 21:39.7 7:13/M 12

Qualifying Teams: 7 Individuals: 10

O'All Place Score Bib No Name Team Time Pace Grade Qualifier
101 84 1201 Rowan Passmore Highland 21:43.8 7:15/M 11 TM
102 85 1459 Makena Steele Troy (Triad) 21:49.4 7:16/M 10
103 86 477 Michelle Park Chatham (Glenwood) 21:51.6 7:17/M 10 TM
104 494 Alaina Miller Effingham 21:54.8 7:18/M 10
105 87 1227 Rebecca White Jacksonville 21:57.6 7:19/M 9
106 88 894 Adelaide Cook Highland 21:57.7 7:19/M 9 TM
107 89 1495 Macy Jones Waterloo 21:58.5 7:20/M 12
108 90 432 Landrey Crain Carterville 22:00.3 7:20/M 11 TM
109 91 876 Logan Shoulders Freeburg 22:03.6 7:21/M 9
110 92 427 Alissa Ruiz Carterville 22:13.6 7:25/M 10 TM
111 93 1400 Sophia Dunn Rochester 22:20.5 7:27/M 9 TM
112 94 1324 Iylie Harris Mt. Vernon 22:21.5 7:27/M 11
113 95 1490 Ella Brown Waterloo 22:23.0 7:28/M 12
114 96 1464 Cadence Williams Urbana 22:25.5 7:29/M 11
115 97 1456 Cameron Powers Troy (Triad) 22:35.6 7:32/M 12
116 98 1218 Hailey Casey Jacksonville 22:37.5 7:33/M 11
117 99 1376 Lily Stevens Olney (Richland County) 22:41.0 7:34/M 11
118 100 1375 Kyleigh Cazel Olney (Richland County) 22:56.3 7:39/M 10
119 101 1471 Savannah Finley Urbana 23:00.1 7:40/M 11
120 102 1469 Lily Schroeder Urbana 23:02.9 7:41/M 12
121 103 1216 Devyn Martino Jacksonville 23:07.7 7:43/M 10
122 104 1409 Kayden Arjsamat Springfield 23:13.8 7:45/M 12
123 105 878 Olivia Morgan Freeburg 23:21.2 7:47/M 11
124 106 1484 Addisyn Crain Waterloo 23:25.1 7:48/M 9
125 107 430 Kennedy Diel Carterville 23:58.3 7:59/M 11 TM
126 108 1465 Claire Daniels Urbana 24:46.7 8:16/M 11
127 109 456 Tess Karagiannakis Champaign (Centennial) 24:52.6 8:18/M 11
128 110 1408 Ava Fultz Springfield 25:08.1 8:23/M 11
129 111 1439 Natalie Jacobs Springfield (Sacred Heart-Griffin) 25:09.4 8:23/M 10 TM
130 112 1329 Marlowe Mygatt Mt. Vernon 25:31.9 8:31/M 9
131 113 1413 Vanshika Gunda Springfield 25:39.7 8:33/M 11
132 114 1323 Daniya Musgrave Mt. Vernon 27:40.5 9:14/M 10
133 115 1220 Leena Cavender Jacksonville 28:36.7 9:32/M 9